Temp
-11 -11 -11 -11 -11 -11 -12 -12 -12 -12 -12 -12 -12 -12 -12 -12 -12 -12 -12 -12 -12 -12 -13 -13 -13 -13 -13 -13 -13 -13 -13 -13 -13 -13 -13 -13 -13 -13 -13 -13 -13 -13
-11 -11 -12 -12 -12 -12 -12 -12 -12 -12 -12 -12 -12 -12 -12 -12 -12 -12 -12 -12 -12 -13 -13 -13 -13 -13 -13 -13 -13 -13 -13 -13 -13 -13 -13 -13 -13 -13 -13 -13 -13 -13
-11 -12 -12 -12 -12 -12 -12 -12 -12 -12 -12 -12 -12 -12 -12 -12 -12 -12 -13 -13 -13 -13 -13 -13 -13 -13 -13 -13 -13 -13 -13 -13 -13 -13 -13 -13 -13 -13 -13 -13 -13 -13
-12 -12 -12 -12 -12 -12 -12 -12 -12 -12 -12 -12 -12 -12 -12 -12 -12 -13 -13 -13 -13 -13 -13 -13 -13 -13 -13 -13 -13 -13 -13 -13 -13 -13 -13 -13 -13 -13 -13 -13 -13 -13
-12 -12 -12 -12 -12 -12 -12 -12 -12 -12 -12 -12 -12 -12 -12 -12 -12 -12 -13 -13 -13 -13 -13 -13 -13 -13 -13 -13 -13 -13 -13 -13 -13 -13 -13 -13 -13 -13 -13 -13 -14 -14
-12 -12 -12 -12 -12 -12 -12 -12 -12 -12 -12 -12 -12 -12 -12 -12 -12 -12 -12 -13 -13 -13 -13 -13 -13 -13 -13 -13 -13 -13 -13 -13 -13 -13 -13 -13 -14 -14 -14 -14 -14 -14
-12 -12 -12 -12 -12 -12 -12 -12 -12 -12 -12 -12 -12 -12 -12 -12 -12 -12 -12 -12 -13 -13 -13 -13 -13 -13 -13 -13 -14 -14 -14 -14 -14 -14 -14 -14 -14 -14 -14 -14 -14 -14
-12 -12 -12 -12 -12 -12 -12 -12 -12 -12 -12 -12 -12 -12 -12 -12 -12 -12 -13 -13 -13 -13 -13 -13 -13 -13 -13 -13 -13 -14 -14 -14 -14 -14 -14 -14 -14 -14 -14 -14 -14 -14
-12 -12 -12 -12 -12 -12 -12 -12 -12 -12 -12 -12 -12 -12 -13 -13 -13 -13 -13 -13 -13 -13 -13 -13 -13 -13 -13 -13 -14 -14 -14 -14 -14 -14 -14 -14 -14 -14 -14 -14 -14 -14
-12 -12 -12 -12 -12 -12 -12 -12 -12 -13 -13 -13 -13 -13 -13 -13 -13 -13 -13 -13 -13 -13 -13 -13 -13 -13 -13 -13 -14 -14 -14 -14 -14 -14 -14 -14 -14 -14 -14 -14 -14 -14
-12 -12 -12 -12 -12 -12 -12 -13 -13 -13 -13 -13 -13 -13 -13 -13 -13 -13 -13 -13 -13 -13 -13 -13 -13 -13 -13 -14 -14 -14 -14 -14 -14 -14 -14 -14 -14 -14 -14 -14 -14 -14
-12 -12 -12 -12 -12 -13 -13 -13 -13 -13 -13 -13 -13 -13 -13 -13 -13 -13 -13 -13 -13 -13 -13 -14 -14 -13 -13 -14 -14 -14 -14 -14 -14 -14 -14 -14 -14 -14 -14 -14 -14 -14
-12 -12 -13 -13 -13 -13 -13 -13 -13 -13 -13 -13 -13 -13 -13 -13 -13 -13 -13 -13 -13 -14 -14 -14 -14 -14 -14 -14 -14 -14 -14 -14 -14 -14 -14 -14 -14 -14 -14 -14 -14 -14
-12 -12 -13 -13 -13 -13 -13 -13 -13 -13 -13 -13 -13 -13 -13 -13 -13 -13 -13 -13 -13 -14 -14 -14 -14 -14 -14 -14 -14 -14 -14 -14 -14 -14 -14 -14 -14 -14 -14 -14 -15 -15
-13 -13 -13 -13 -13 -13 -13 -13 -13 -13 -13 -13 -13 -13 -13 -13 -13 -13 -13 -13 -13 -13 -14 -14 -14 -14 -14 -14 -14 -14 -14 -14 -14 -14 -14 -14 -15 -15 -15 -15 -15 -15
-13 -13 -13 -13 -13 -13 -13 -13 -13 -13 -13 -13 -13 -13 -13 -13 -13 -13 -13 -13 -14 -14 -14 -14 -14 -14 -14 -14 -14 -14 -14 -14 -14 -15 -15 -15 -15 -15 -15 -15 -15 -15
-13 -13 -13 -13 -13 -13 -13 -13 -13 -13 -13 -13 -13 -13 -13 -13 -13 -13 -13 -14 -14 -14 -14 -14 -14 -14 -14 -14 -14 -15 -15 -15 -15 -15 -15 -15 -15 -15 -16 -16 -16 -16
-13 -13 -13 -13 -13 -13 -13 -13 -13 -13 -13 -13 -13 -13 -13 -13 -13 -14 -14 -14 -14 -14 -14 -14 -14 -14 -14 -15 -15 -15 -15 -15 -15 -16 -16 -16 -16 -16 -16 -16 -16 -16
-13 -13 -13 -13 -13 -13 -13 -13 -13 -13 -13 -13 -13 -13 -13 -14 -14 -14 -14 -14 -14 -14 -14 -14 -14 -15 -15 -15 -15 -15 -15 -16 -16 -16 -16 -16 -16 -16 -16 -16 -16 -16
-13 -13 -13 -13 -13 -13 -13 -13 -13 -13 -13 -13 -13 -14 -14 -14 -14 -14 -14 -14 -14 -14 -14 -15 -15 -15 -15 -15 -15 -16 -16 -16 -16 -16 -16 -16 -16 -16 -16 -16 -17 -17
-13 -13 -13 -13 -13 -13 -13 -13 -13 -13 -13 -14 -14 -14 -14 -14 -14 -14 -14 -14 -14 -15 -15 -15 -15 -15 -15 -16 -16 -16 -16 -16 -16 -16 -16 -16 -16 -17 -17 -17 -17 -17
-13 -13 -13 -13 -13 -13 -13 -13 -14 -14 -14 -14 -14 -14 -14 -14 -14 -14 -15 -15 -15 -15 -15 -15 -16 -16 -16 -16 -16 -16 -16 -16 -16 -16 -17 -17 -17 -17 -17 -17 -17 -17
-13 -13 -13 -13 -14 -14 -14 -14 -14 -14 -14 -14 -14 -14 -15 -15 -15 -15 -15 -15 -15 -15 -16 -16 -16 -16 -16 -16 -16 -17 -17 -17 -17 -17 -17 -17 -17 -17 -17 -17 -17 -17
-14 -14 -14 -14 -14 -14 -14 -14 -14 -14 -15 -15 -15 -15 -15 -15 -15 -15 -15 -15 -16 -16 -16 -16 -16 -16 -16 -17 -17 -17 -17 -17 -17 -17 -17 -17 -17 -17 -17 -17 -17 -17
-14 -14 -14 -14 -14 -14 -15 -15 -15 -15 -15 -15 -15 -15 -15 -15 -15 -16 -16 -16 -16 -16 -16 -16 -16 -17 -17 -17 -17 -17 -17 -17 -17 -17 -17 -17 -17 -17 -17 -17 -17 -17
-14 -14 -14 -14 -15 -15 -15 -15 -15 -15 -15 -15 -16 -16 -16 -16 -16 -16 -16 -16 -16 -17 -17 -17 -17 -17 -17 -17 -17 -17 -17 -17 -17 -17 -17 -17 -17 -17 -17 -17 -17 -17
Height
5801 5802 5802 5803 5803 5803 5803 5803 5803 5803 5802 5802 5802 5802 5802 5801 5801 5801 5800 5799 5799 5798 5797 5797 5796 5796 5795 5795 5794 5793 5792 5792 5791 5790 5789 5788 5787 5786 5785 5784 5783 5783
5800 5801 5801 5802 5802 5802 5802 5801 5801 5801 5801 5801 5801 5800 5800 5799 5799 5798 5798 5798 5797 5796 5796 5795 5795 5794 5794 5793 5792 5791 5791 5790 5789 5788 5787 5786 5785 5784 5783 5782 5781 5781
5800 5800 5800 5801 5801 5801 5800 5800 5800 5800 5800 5800 5799 5798 5798 5797 5797 5796 5796 5796 5795 5795 5794 5793 5792 5791 5791 5791 5790 5789 5788 5788 5787 5786 5785 5784 5783 5782 5781 5780 5779 5778
5799 5799 5799 5799 5799 5799 5799 5799 5799 5799 5799 5798 5797 5797 5797 5796 5796 5795 5794 5794 5793 5793 5792 5791 5790 5789 5788 5788 5787 5787 5786 5785 5784 5784 5782 5781 5780 5779 5778 5778 5777 5776
5798 5798 5798 5798 5798 5798 5798 5798 5798 5798 5797 5796 5796 5796 5795 5795 5794 5794 5793 5792 5791 5791 5790 5789 5788 5787 5786 5785 5785 5785 5784 5783 5782 5781 5780 5779 5778 5777 5776 5775 5774 5774
5797 5797 5797 5797 5797 5797 5797 5797 5797 5796 5795 5795 5794 5794 5793 5793 5793 5792 5791 5790 5789 5789 5789 5788 5787 5785 5784 5783 5783 5782 5781 5780 5779 5778 5778 5777 5776 5775 5774 5773 5772 5771
5796 5796 5796 5796 5796 5796 5796 5795 5795 5794 5794 5793 5792 5792 5791 5791 5791 5790 5789 5788 5787 5787 5786 5786 5785 5783 5782 5781 5780 5780 5779 5778 5776 5775 5774 5774 5773 5772 5771 5771 5770 5769
5795 5795 5795 5795 5794 5794 5794 5794 5793 5793 5792 5791 5791 5790 5789 5789 5788 5787 5786 5785 5785 5784 5784 5783 5782 5781 5780 5779 5778 5777 5777 5775 5774 5773 5772 5771 5770 5769 5768 5767 5766 5765
5794 5794 5794 5793 5792 5792 5792 5792 5791 5791 5790 5789 5789 5788 5787 5786 5785 5785 5784 5783 5782 5782 5781 5780 5779 5778 5777 5776 5776 5775 5774 5773 5771 5770 5769 5768 5767 5766 5765 5764 5763 5762
5793 5792 5791 5791 5790 5790 5790 5790 5789 5789 5788 5787 5786 5786 5785 5784 5783 5782 5781 5781 5780 5779 5778 5776 5776 5775 5774 5773 5772 5771 5770 5769 5768 5767 5765 5764 5762 5762 5761 5760 5760 5759
5791 5790 5789 5789 5789 5788 5788 5788 5787 5787 5786 5785 5784 5783 5782 5781 5780 5779 5778 5778 5777 5776 5774 5773 5772 5771 5771 5770 5769 5767 5766 5765 5764 5763 5761 5760 5759 5758 5757 5757 5756 5755
5789 5788 5788 5787 5787 5787 5786 5786 5785 5785 5784 5783 5781 5780 5779 5779 5778 5777 5776 5775 5774 5773 5772 5771 5770 5769 5768 5767 5765 5764 5763 5762 5760 5759 5757 5756 5755 5754 5754 5753 5752 5751
5787 5787 5786 5786 5785 5785 5784 5784 5783 5782 5781 5780 5779 5778 5777 5776 5775 5774 5773 5772 5771 5770 5769 5768 5767 5766 5764 5763 5762 5761 5759 5758 5757 5755 5754 5753 5752 5751 5750 5750 5749 5747
5785 5785 5784 5784 5783 5783 5782 5781 5780 5779 5778 5777 5776 5775 5774 5773 5772 5771 5770 5769 5768 5767 5766 5765 5764 5762 5761 5759 5758 5757 5755 5754 5753 5752 5751 5750 5749 5748 5747 5746 5745 5744
5783 5782 5782 5781 5781 5780 5779 5778 5777 5776 5775 5774 5773 5772 5771 5770 5769 5768 5767 5766 5765 5764 5763 5762 5760 5759 5757 5756 5754 5753 5752 5751 5750 5749 5748 5747 5746 5744 5743 5742 5741 5740
5781 5780 5779 5779 5778 5777 5776 5775 5774 5773 5772 5771 5770 5769 5768 5767 5766 5765 5764 5763 5762 5761 5759 5758 5757 5755 5754 5753 5751 5750 5749 5748 5747 5746 5744 5743 5742 5741 5739 5738 5738 5737
5779 5778 5777 5776 5775 5774 5773 5772 5771 5770 5769 5768 5767 5766 5765 5764 5763 5762 5760 5759 5758 5757 5756 5754 5753 5752 5750 5749 5748 5747 5746 5745 5744 5743 5741 5740 5739 5738 5737 5736 5735 5734
5776 5775 5774 5773 5772 5771 5770 5769 5768 5767 5766 5765 5763 5762 5761 5760 5759 5758 5757 5756 5754 5753 5752 5751 5749 5748 5747 5746 5744 5743 5743 5742 5741 5739 5738 5737 5736 5735 5734 5733 5732 5731
5773 5772 5771 5770 5769 5768 5767 5766 5765 5764 5762 5761 5760 5759 5758 5757 5755 5754 5753 5752 5751 5750 5749 5747 5746 5745 5743 5742 5741 5740 5739 5738 5737 5736 5735 5734 5733 5732 5730 5729 5728 5727
5770 5769 5768 5767 5766 5765 5764 5763 5762 5760 5759 5758 5757 5756 5754 5753 5752 5751 5750 5749 5748 5746 5745 5744 5742 5741 5740 5738 5737 5736 5735 5734 5733 5732 5731 5730 5729 5728 5726 5725 5724 5723
5766 5765 5764 5763 5762 5761 5760 5759 5758 5757 5756 5754 5753 5752 5751 5750 5749 5748 5746 5745 5744 5742 5741 5739 5738 5737 5736 5735 5733 5732 5731 5730 5729 5728 5727 5726 5724 5723 5722 5721 5719 5718
5763 5762 5761 5760 5759 5758 5757 5755 5754 5753 5752 5751 5750 5749 5747 5746 5745 5743 5742 5740 5739 5738 5736 5735 5734 5733 5732 5731 5730 5729 5727 5726 5725 5724 5723 5721 5720 5719 5717 5716 5715 5713
5760 5759 5758 5757 5756 5755 5753 5752 5751 5750 5748 5747 5746 5744 5743 5742 5740 5739 5738 5736 5735 5734 5733 5731 5730 5729 5728 5727 5726 5724 5723 5722 5721 5719 5718 5717 5715 5714 5713 5711 5710 5708
5757 5756 5755 5754 5752 5751 5750 5748 5747 5746 5745 5743 5742 5741 5739 5738 5737 5735 5734 5733 5732 5730 5729 5728 5727 5725 5724 5723 5721 5720 5718 5717 5715 5714 5713 5711 5710 5708 5707 5706 5704 5703
5753 5752 5751 5750 5749 5747 5746 5745 5744 5742 5741 5740 5738 5737 5736 5734 5733 5732 5731 5729 5728 5726 5725 5723 5722 5721 5719 5718 5716 5715 5713 5712 5710 5709 5707 5706 5704 5703 5701 5700 5699 5697
5750 5748 5747 5746 5745 5744 5743 5742 5740 5739 5737 5736 5735 5733 5732 5731 5729 5728 5726 5725 5723 5722 5720 5719 5717 5716 5714 5712 5711 5709 5708 5706 5704 5703 5701 5699 5698 5696 5695 5694 5692 5691
Wind_Speed
9 10 10 10 9 9 9 9 10 11 11 11 11 11 12 13 14 15 14 13 12 12 12 13 14 14 14 15 15 15 15 15 15 16 16 16 17 17 18 19 19 20
9 9 9 10 10 9 9 10 10 11 11 11 11 11 11 12 12 13 12 12 12 12 12 12 13 13 13 13 13 13 13 14 14 15 15 15 16 16 17 18 19 19
9 9 9 9 10 11 10 10 10 11 10 10 10 10 11 11 11 11 11 11 11 12 12 13 13 13 12 11 12 12 13 14 15 15 15 15 15 16 16 17 18 18
7 7 8 9 10 11 10 10 10 10 9 10 9 10 11 12 11 11 11 12 12 12 13 13 13 13 13 13 13 14 15 15 15 15 15 15 15 16 16 17 17 17
6 6 7 8 10 10 9 9 10 10 10 10 10 11 12 12 11 12 12 12 13 14 14 14 13 14 15 15 15 16 17 17 16 16 16 16 16 16 17 17 17 17
8 8 8 8 9 9 8 8 9 10 10 11 11 12 12 12 12 13 13 14 14 15 15 15 14 14 16 17 18 19 19 18 18 17 17 16 16 16 16 17 17 18
9 9 9 9 9 9 9 9 10 11 11 11 12 13 13 13 14 14 15 15 16 16 17 17 16 16 17 18 20 19 19 19 19 18 18 18 18 18 17 17 19 19
8 9 9 9 9 9 10 10 11 12 12 13 13 13 14 15 15 15 16 16 17 18 18 19 18 18 18 18 19 19 19 18 18 18 19 19 20 20 19 20 22 22
8 9 9 9 10 10 11 11 12 12 13 14 14 14 15 16 16 16 16 17 18 18 19 20 20 19 20 19 19 20 19 18 19 20 20 21 21 21 21 21 22 22
9 9 10 10 11 12 12 12 13 13 14 15 15 16 16 16 17 17 17 18 18 19 20 21 21 21 22 22 22 22 22 21 22 22 22 23 24 24 23 22 21 22
10 10 11 12 13 14 14 14 14 15 15 16 17 17 17 17 17 18 19 19 20 21 21 22 23 23 24 25 24 24 24 24 24 23 23 24 25 24 24 23 22 23
11 12 13 14 15 16 16 15 15 16 17 17 18 18 19 19 19 20 20 21 21 22 22 23 24 25 25 26 25 25 25 24 24 24 24 24 24 24 24 23 23 24
13 14 15 16 17 17 17 18 18 18 18 18 19 20 20 21 22 22 22 23 23 24 25 25 26 26 26 26 25 25 25 24 24 24 24 24 24 24 24 23 23 24
16 17 18 18 18 19 19 19 20 20 20 20 20 21 22 23 24 23 24 25 26 27 27 27 27 27 26 26 26 25 25 25 25 25 24 23 23 23 23 23 23 22
18 19 19 20 20 20 20 20 21 21 22 22 22 23 24 25 26 26 27 28 28 28 27 27 27 27 26 26 26 26 26 26 26 25 25 24 24 23 23 22 22 21
19 20 20 20 20 21 21 22 22 23 23 24 24 25 26 26 27 28 28 28 28 28 27 27 26 26 26 26 26 26 27 26 26 26 25 25 24 23 23 22 21 21
20 21 21 21 21 21 22 23 23 24 25 25 26 27 27 28 28 29 29 29 28 28 27 27 27 26 26 26 26 26 26 25 25 24 24 23 23 23 22 22 21 21
20 20 21 21 22 22 23 23 24 25 26 27 27 28 29 29 29 29 29 29 28 28 28 28 28 28 28 28 27 27 26 25 24 23 23 23 22 22 22 22 22 22
19 20 20 21 22 22 23 24 25 26 27 28 29 29 29 29 29 29 29 28 28 28 29 29 29 29 29 28 28 27 27 26 25 25 24 24 23 23 23 23 23 23
19 20 21 22 23 24 24 25 26 27 28 29 29 29 29 29 28 28 28 28 29 29 30 30 30 30 30 30 29 28 28 27 27 26 26 25 25 25 24 25 25 26
20 21 22 24 25 26 27 27 28 29 29 29 29 29 28 28 28 29 29 30 30 31 31 32 32 31 31 31 30 29 29 29 28 28 27 27 26 26 26 27 28 29
22 23 24 26 27 28 28 29 29 29 29 29 28 28 28 29 29 30 31 31 32 32 32 32 32 32 31 31 31 30 30 30 30 30 29 29 28 28 29 29 30 31
24 25 26 27 28 28 29 29 29 28 28 28 28 29 29 29 30 30 31 31 31 32 32 32 32 32 32 32 32 32 32 32 32 32 32 31 31 31 31 32 32 33
26 27 27 28 28 29 28 28 28 28 28 29 29 29 29 30 30 31 31 32 33 33 33 33 33 33 33 33 33 34 34 35 35 35 35 35 35 35 35 35 36 36
26 27 28 28 28 28 28 28 28 29 29 29 29 30 30 31 31 32 33 33 34 34 34 34 34 35 35 35 36 36 37 37 38 38 38 38 38 38 39 39 40 40
27 27 28 28 28 28 28 29 29 29 29 29 30 30 31 32 32 33 33 34 34 34 35 35 36 37 37 38 38 39 39 40 40 41 41 42 42 43 43 43 44 44
Wind_Direction
252 261 263 263 260 255 258 265 269 273 277 282 288 293 295 296 296 296 295 293 291 288 287 288 288 288 288 289 291 295 297 298 298 298 296 294 292 290 290 289 289 288
258 264 265 269 268 265 264 267 275 283 289 294 295 294 293 293 295 297 296 296 297 295 293 293 292 291 290 292 297 301 303 303 301 299 297 294 293 292 291 290 290 289
257 260 260 263 265 265 266 272 285 291 293 292 289 291 296 296 296 296 296 299 304 307 305 303 300 295 293 298 306 310 310 308 305 303 300 298 297 296 295 294 293 292
252 255 257 259 259 262 267 279 289 289 286 282 281 292 301 299 297 296 296 299 304 309 309 307 305 301 300 304 309 313 314 310 308 307 305 304 302 300 298 295 294 294
241 247 258 260 259 262 271 282 284 285 286 283 284 293 297 297 298 299 299 300 302 306 308 308 307 306 304 304 306 311 314 313 311 310 308 306 304 303 302 299 298 299
237 248 260 263 263 265 270 275 279 283 285 285 290 297 297 298 299 301 302 304 304 305 307 308 308 307 306 305 307 311 314 314 314 313 310 307 306 304 303 302 302 301
240 249 259 265 268 270 271 274 280 284 286 289 295 299 299 300 302 304 306 308 308 308 309 309 308 308 307 307 309 311 313 314 313 312 313 312 310 308 305 303 302 300
249 255 264 268 271 275 279 282 285 288 290 293 296 297 298 301 303 305 307 307 308 307 306 306 306 306 305 305 308 309 309 310 309 308 310 311 309 307 305 303 303 303
259 267 274 278 281 283 285 287 289 292 293 295 297 298 299 301 302 304 304 304 304 302 301 302 304 306 304 304 308 308 305 306 307 307 307 306 304 303 300 299 299 300
269 277 281 284 286 287 287 290 293 294 295 296 297 298 299 300 301 302 302 302 301 301 301 303 305 306 306 307 308 308 306 306 306 305 303 303 303 303 302 300 298 296
277 281 283 286 288 291 293 296 297 296 296 296 297 298 300 301 301 301 302 302 303 303 305 306 307 306 307 307 306 306 305 304 303 301 300 300 302 302 302 301 299 296
283 284 286 289 291 293 295 296 296 296 296 297 298 301 303 303 303 304 304 305 306 306 307 307 305 304 304 303 302 302 302 302 301 300 299 299 300 300 299 298 296 294
286 288 289 290 292 293 295 296 296 296 297 299 300 303 305 304 304 306 305 305 306 306 305 304 303 302 301 300 301 302 302 302 302 301 301 301 299 298 296 295 293 292
288 290 290 291 293 294 295 296 297 298 300 301 302 303 303 302 303 304 302 302 303 303 302 302 301 301 301 302 303 304 304 304 303 301 300 299 296 294 293 291 289 288
289 290 291 291 293 294 295 296 297 298 299 300 301 300 299 299 300 300 300 301 301 301 301 301 301 302 303 304 305 305 305 304 303 301 299 297 295 292 290 289 287 286
288 289 290 292 293 294 294 294 295 296 297 297 298 298 298 299 299 300 300 301 301 301 302 302 302 303 304 305 305 304 304 302 301 299 297 295 294 292 291 290 289 288
287 288 289 290 291 291 292 293 293 294 295 296 297 298 299 300 300 301 301 302 302 303 303 303 304 305 305 304 303 302 301 299 297 296 294 294 293 292 291 290 290 289
284 285 286 288 289 290 291 292 293 295 296 298 299 300 300 301 301 301 302 303 303 303 304 305 305 305 304 303 301 299 298 296 295 294 293 292 292 291 291 290 290 290
282 283 284 286 288 290 292 294 296 297 298 299 300 300 300 301 301 302 302 303 303 303 304 304 303 302 301 300 299 298 297 296 295 294 293 292 292 291 292 292 293 293
284 286 287 289 291 293 295 296 298 298 299 299 299 299 299 300 300 301 301 302 302 302 302 301 301 300 299 299 298 297 296 295 294 293 293 292 291 291 292 293 294 295
288 290 292 294 296 297 298 298 298 298 298 297 297 297 298 298 299 300 300 301 301 300 300 300 300 300 299 298 297 296 294 293 292 291 290 289 289 290 291 293 294 295
292 294 295 296 298 298 298 298 297 296 296 296 296 297 298 299 300 300 300 300 300 300 300 300 299 298 297 296 295 294 293 291 289 288 286 286 286 287 288 290 292 294
295 296 296 296 297 296 296 296 296 296 296 297 297 298 299 299 299 299 298 298 297 297 296 295 295 294 293 292 291 291 290 289 287 285 284 283 283 284 286 288 290 292
296 296 296 297 297 296 297 297 297 297 297 297 297 297 296 296 296 295 295 294 293 293 292 292 291 290 290 290 289 289 289 288 287 286 284 284 284 285 286 288 290 291
296 296 296 297 297 297 297 297 296 295 294 294 293 293 293 293 293 293 293 293 292 292 292 292 291 291 290 290 289 289 289 289 288 287 286 285 285 285 286 288 290 290
295 296 296 296 297 296 295 293 292 291 290 291 291 291 292 292 292 293 293 294 294 294 293 293 292 291 291 291 291 290 290 289 289 288 286 285 285 285 285 286 287 288